Regional Weather Roundup
Issued by NWS Goodland, KS

Home | Current Version | Previous Version | Graphics & Text | Print | Product List | Glossary On
Versions: 1 2 3 4 5 6 7 8 9 10 11 12 13 14 15 16 17 18 19 20 21 22 23 24 25 26 27 28 29 30 31 32 33 34 35 36 37 38 39 40 41 42 43 44 45 46 47 48 49 50
000
ASUS43 KGLD 260208
RWRGLD

GOODLAND FORECAST AREA HOURLY WEATHER ROUNDUP
NATIONAL WEATHER SERVICE GOODLAND KS
700 PM MST SUN JAN 25 2015

...OFFICIAL OBSERVATIONS...

CITY           SKY/WX    TMP DP  RH WIND       PRES   REMARKS
GOODLAND KS    PTCLDY    35  29  78 W6        30.13S
HILL CITY KS   CLEAR     28  18  66 SW3       30.10F
IMPERIAL NEB   CLOUDY    43  32  65 SW7       30.09R
MCCOOK NEB     MOCLDY    41  20  43 SW5       30.08R
AKRON CO       CLEAR     36  29  75 W8        30.15R
BURLINGTON CO  CLEAR     36  30  79 W10       30.14S
LIMON CO       CLEAR     33  26  75 NW3       30.20R
$$

...UNOFFICIAL OBSERVATIONS...

CITY           SKY/WX    TMP DP  RH WIND       PRES   REMARKS
COLBY KS       MOCLDY    37  32  81 W7        30.12S
GOVE KS          N/A     34  32  92 MISG        N/A
NORTON KS      CLEAR     36  19  51 S5        30.08F
SHARON SPRINGS   N/A     37  28  70 W6          N/A
KIT CARSON CO    N/A     38  27  64 MISG        N/A
YUMA CO          N/A     37  30  75 W9          N/A
$$


USA.gov is the U.S. government's official web portal to all federal, state and local government web resources and services.